Погода в Архангельской

Россия / Краснодарский край     45°40′29″N   40°16′54″E
темп.,
°C
ветер,
м/с
пор.,
м/с
влажн.,
%
обл.,
%
осадки,
мм/ч
давл.,
гПа
погр.,
м
24 октября, вс
вс2400:00+13зюз4108995 0.0 1019267
03:00+13з3789100 0.0 1019318
06:00+12ссз3494100 0.9 1019247
09:00+11всв2490100 4.7 1020244
12:00+13ссв3481100 2.4 1020558
15:00+11ссв3686100 6.4 1019572
18:00+10с71090100 6.9 1019757
21:00+8с5891100 17.3 1021935
25 октября, пн
пн2500:00+7с6888100 5.9 1023926
03:00+7зсз2579100 6.7 1024804
06:00+7з367699 0.4 1026597
09:00+8зсз45735 0.4 1028662
12:00+10ссз34545 0.0 10281244
15:00+10ссз4451100 0.1 10281712
18:00+9ссз3452100 0.0 1030199
21:00+9с235299 0.0 103185
26 октября, вт
вт2600:00+7св465742 0.0 1031292
03:00+4всв36665 0.0 1032161
06:00+3всв36680 0.0 1032143
09:00+5всв46570 0.0 1033321
12:00+9в44470 0.0 1032933
15:00+10в44420 0.0 10311029
18:00+7всв37530 0.0 1031172
21:00+6всв511550 0.0 1030281
27 октября, ср
ср2700:00+5в511560 0.0 1030267
03:00+4в512600 0.0 1029270
06:00+4в613640 0.0 1028296
09:00+6в712580 0.0 1027402
12:00+11в79450 0.0 1025712
15:00+13в68390 0.0 1023926
18:00+10в511480 0.0 1023262
21:00+7в37560 0.0 1022149
28 октября, чт
чт2800:00+6в22660 0.0 102219
03:00+5сз2268100 0.0 102210
06:00+5сз336777 0.0 102337
09:00+7сз34560 0.0 1024215
12:00+11сз344393 0.0 1024641
15:00+11сз443899 0.0 1024873
18:00+9сз2244100 0.0 102532
21:00+7ссз224368 0.0 102612